Lid_Strength_Index
2 6 9 10 14 15 17 13 12 12 12 11 7 7 8 8 9 12 2 1 1 1 -0 -0 -1 -1 -1 -1 -1 -1 -1 -1 -1 -1 -1 -1 -1 -1 -1 -1 -1 -1 -1 -1 -1 -1 -1 -1 -1
3 7 11 13 17 18 17 13 12 10 10 10 10 6 7 8 5 5 4 1 1 0 -0 -0 -1 -1 -1 -1 -1 -1 -1 -1 -1 -1 -1 -1 -1 -1 -1 -1 -1 -1 -1 -1 -1 -1 -1 -1 -1
3 6 12 15 18 18 17 13 11 10 8 10 11 5 6 7 4 4 2 1 0 0 -0 -0 -1 -1 -1 -1 -1 -1 -1 -1 -1 -1 -1 -1 -1 -1 -1 -1 -1 -1 -1 -1 -1 -1 -1 -1 -1
7 9 11 16 18 16 14 13 12 11 10 10 10 8 5 3 3 2 1 1 1 0 -0 -0 -1 -1 -1 -1 -1 -1 -1 -1 -1 -1 -1 -1 -1 -1 -1 -1 -1 -1 -1 -1 -1 -1 -1 -1 -1
10 13 16 18 17 16 14 12 13 13 12 11 12 13 9 4 2 2 1 1 1 1 -0 -0 -1 -1 -1 -1 -1 -1 -1 -1 -1 -1 -1 -1 -1 -1 -1 -1 -1 -1 -1 -1 -1 -1 -1 -1 -2
12 14 18 18 17 14 12 12 14 14 13 11 13 11 7 3 3 2 1 1 0 1 -0 -0 -1 -1 -1 -1 -1 -1 -1 -1 -1 -1 -1 -1 -1 -1 -1 -1 -1 -1 -1 -1 -1 -1 -2 -2 -1
12 16 18 19 17 15 13 11 13 14 14 13 12 9 7 4 2 1 1 1 1 0 0 0 -0 -1 -1 -1 -1 -1 -1 -1 -1 -1 -1 -1 -1 -1 -1 -1 -1 -1 -1 -1 -1 -1 -2 -1 -2
11 14 17 17 16 15 12 11 11 13 13 11 10 11 8 5 2 1 1 1 1 1 0 0 -0 -0 -0 -0 -1 -1 -1 -1 -1 -1 -1 -1 -1 -1 -1 -1 -1 -1 -1 -1 -1 -1 -1 -1 -1
10 15 17 16 16 15 13 12 9 8 12 11 10 9 4 3 2 2 3 2 2 1 1 0 0 -0 -0 -0 -0 -1 -1 -1 -1 -1 -1 -0 -0 -1 -1 -1 -1 -1 -1 -1 -1 -1 -1 -1 -1
11 15 14 13 13 14 12 11 10 9 10 11 11 7 3 3 3 4 4 4 3 2 1 1 0 0 -0 -0 -0 -0 -0 -0 -0 -0 -0 -0 -0 -0 -1 -1 -1 -1 -1 -1 -1 -1 -2 -1 -1
14 13 11 11 11 11 11 11 9 10 11 10 11 5 5 4 4 4 4 3 3 2 1 1 0 0 0 0 -0 -0 -0 -0 -0 -0 -0 0 -0 -0 -0 -0 -0 -0 -1 -1 -1 -1 -1 -1 -1
14 12 12 11 9 10 10 9 10 10 9 7 9 8 5 5 5 4 4 4 3 2 2 1 1 0 0 0 0 -0 0 -0 -0 -0 -0 -0 -0 -0 -0 -0 -0 -0 -0 -0 -0 -0 -1 -0 -0
12 12 10 10 11 11 10 10 9 9 7 6 6 7 5 5 4 4 3 3 2 3 2 1 1 1 0 0 0 0 0 -0 -0 -0 -0 -0 -0 0 -0 -0 -0 -0 -1 -0 -0 -0 -0 0 -0
12 11 11 11 11 11 11 11 11 9 7 7 7 8 8 5 4 4 4 3 3 2 2 1 1 0 0 0 0 0 -0 -0 -0 -0 -0 -0 -0 -0 -0 -0 -0 -0 -0 -0 -0 0 0 0 0
9 12 11 11 11 11 10 12 12 9 8 8 8 8 6 5 4 4 3 3 3 2 2 1 1 0 1 0 0 0 0 -0 0 -0 -0 -0 -0 -0 -0 -0 0 1 -0 0 1 1 1 1 1
11 14 16 12 10 9 10 14 11 9 9 9 9 8 6 5 4 3 3 3 2 2 2 1 1 1 1 1 1 0 0 -0 -0 0 0 -0 -0 -0 0 0 0 -0 -0 1 1 1 1 1 1
13 16 15 13 9 10 10 13 11 10 10 9 9 9 10 6 5 4 3 3 2 2 2 1 1 1 1 2 2 1 1 1 1 1 0 -0 -0 -0 0 0 -0 -0 1 1 0 1 0 1 1
16 14 13 14 10 10 11 12 11 10 10 10 10 10 10 6 6 4 4 4 3 2 2 2 2 1 2 3 2 2 2 1 1 1 -0 -0 -0 -1 -0 -0 -0 1 1 1 1 1 1 1 2
12 13 13 12 10 12 11 12 11 10 10 10 10 12 9 6 5 5 4 4 4 3 3 3 3 3 3 3 2 2 2 1 0 0 0 -0 -0 -1 -0 1 1 1 1 1 1 1 2 3 2
12 14 14 11 9 12 12 12 11 10 10 10 10 12 11 8 6 4 4 4 4 4 3 3 2 3 2 1 2 1 1 1 0 0 -0 0 0 -0 1 1 1 0 1 2 2 2 3 2 1
13 14 13 13 10 10 12 13 12 10 10 9 10 10 10 10 6 5 4 5 4 4 4 3 2 2 2 1 1 1 1 1 1 1 1 0 0 1 1 1 1 1 1 3 4 3 3 2 1
14 11 11 11 13 16 11 18 13 10 11 10 10 11 11 7 6 5 5 5 4 4 3 3 2 2 2 1 1 2 3 3 3 2 2 1 2 2 1 1 2 2 3 4 4 3 2 3 3
13 11 11 11 12 15 14 16 14 11 12 11 10 10 11 7 6 5 5 4 3 3 4 3 3 2 2 2 2 3 3 3 3 3 3 4 4 3 3 4 4 4 3 4 5 5 5 4 3
9 11 12 11 14 19 15 15 16 13 12 10 10 11 11 9 6 5 4 4 3 4 3 3 3 4 3 3 4 4 4 3 3 3 4 4 4 4 5 5 5 4 5 5 5 5 4 4 3
11 14 19 20 21 20 13 15 14 11 10 9 10 11 11 10 6 6 5 5 4 4 3 3 3 4 4 4 3 3 3 2 3 3 4 4 5 6 5 4 4 5 5 5 5 5 4 3 4
13 13 20 23 22 18 13 18 14 9 9 9 10 10 10 8 6 5 5 4 4 4 3 3 3 4 3 3 3 3 2 2 2 3 3 5 6 6 4 4 6 6 5 5 5 4 4 4 4
13 15 12 17 16 19 17 13 11 9 11 11 10 10 10 6 6 6 5 4 4 3 3 3 4 4 3 2 3 2 1 1 3 3 4 5 5 5 5 6 6 6 6 5 5 5 4 4 4
11 10 17 16 23 23 19 16 15 12 13 11 11 10 11 7 6 5 5 4 3 3 4 5 6 6 5 4 3 2 2 3 3 4 5 5 5 6 7 7 7 7 6 5 5 6 5 4 4
14 15 14 15 17 21 22 18 13 14 11 11 11 10 7 7 6 6 5 4 6 5 6 7 7 6 6 6 5 5 5 5 5 5 6 7 7 7 8 7 7 7 6 6 6 5 5 5 4
11 13 14 18 19 17 18 18 11 11 10 11 9 8 7 6 6 5 5 5 7 8 8 8 8 8 7 7 7 6 6 7 7 7 7 7 8 9 8 7 7 7 7 7 7 6 5 4 4